User: anonymous   Login
Location: Unspecified
(0.0000°N, 0.0000°E)
Time: 06:17:58
(UTC+00:00)
Language:

DELFI C3 - Orbit

View from above orbital plane
View from above orbital plane
View from above satellite
View from above satellite

Ground track
Ground track

The orbit data is extracted from the following two-line orbital elements,

1 32789U 08021G   17119.88166980 +.00001532 +00000-0 +11302-3 0  9996
2 32789 097.5634 179.1251 0010810 263.7889 096.2106 15.04719043489508
Epoch (UTC): 29 April 2017 21:09:36
Eccentricity: 0.0010810
inclination: 97.5634°
perigee height: 545 km
apogee height: 560 km
right ascension of ascending node: 179.1251°
argument of perigee: 263.7889°
revolutions per day: 15.04719043
mean anomaly at epoch: 96.2106°
orbit number at epoch: 48950

The dashed part of the orbit path shows where the satellite is in the earth's shadow,  

DLR